| time (UTC) | temp F | wind direction | speed knots | gust knots | rain 1hr in | rain 24hr in | rain mn in | humidity % | barometer mb |
| 20260504150154 | 69 | 355 | 0.9 | 4.3 | 0.00 | 0.00 | 0.00 | 80 | 1014.8 |
| 20260504140754 | 66 | 342 | 0.9 | 2.6 | 0.00 | 0.00 | 0.00 | 82 | 1015.0 |
| 20260504130454 | 61 | 350 | 0.0 | 0.9 | 0.00 | 0.00 | 0.00 | 89 | 1015.1 |
| 20260504100454 | 57 | 0 | 0.0 | 0.0 | 0.00 | 0.00 | 0.00 | 90 | 1014.7 |
| 20260504081654 | 59 | 0 | 0.0 | 0.0 | 0.00 | 0.00 | 0.00 | 87 | 1015.2 |
| 20260504060154 | 64 | 13 | 0.0 | 1.7 | 0.00 | 0.00 | 0.00 | 76 | 1017.2 |
| 20260504045854 | 64 | 224 | 0.0 | 0.9 | 0.00 | 0.00 | 0.00 | 73 | 1017.4 |
| 20260504043154 | 65 | 332 | 0.9 | 3.5 | 0.00 | 0.00 | 0.00 | 70 | 1017.4 |
| 20260504042254 | 65 | 354 | 0.9 | 5.2 | 0.00 | 0.00 | 0.00 | 70 | 1017.4 |
| 20260504041354 | 65 | 315 | 0.0 | 2.6 | 0.00 | 0.00 | 0.00 | 70 | 1017.4 |
| 20260504040454 | 65 | 325 | 0.9 | 1.7 | 0.00 | 0.00 | 0.00 | 70 | 1017.5 |
| 20260504035554 | 66 | 296 | 0.0 | 2.6 | 0.00 | 0.00 | 0.00 | 69 | 1017.5 |
| 20260504033754 | 66 | 355 | 0.9 | 3.5 | 0.00 | 0.00 | 0.00 | 68 | 1017.5 |
| 20260504031954 | 66 | 316 | 0.0 | 1.7 | 0.00 | 0.00 | 0.00 | 67 | 1017.2 |
| 20260504031054 | 66 | 310 | 0.9 | 3.5 | 0.00 | 0.00 | 0.00 | 65 | 1017.3 |
| 20260504030154 | 66 | 323 | 0.9 | 3.5 | 0.00 | 0.00 | 0.00 | 64 | 1017.2 |
| 20260504025254 | 66 | 311 | 0.0 | 3.5 | 0.00 | 0.00 | 0.00 | 64 | 1017.2 |
| 20260504024354 | 66 | 312 | 0.0 | 1.7 | 0.00 | 0.00 | 0.00 | 64 | 1017.1 |
| 20260504023454 | 65 | 259 | 0.0 | 1.7 | 0.00 | 0.00 | 0.00 | 65 | 1017.1 |
| 20260504021654 | 63 | 0 | 0.0 | 0.0 | 0.00 | 0.00 | 0.00 | 72 | 1017.0 |
| 20260504015854 | 64 | 0 | 0.0 | 0.0 | 0.00 | 0.00 | 0.00 | 68 | 1016.8 |
| 20260504014954 | 66 | 0 | 0.0 | 0.0 | 0.00 | 0.00 | 0.00 | 65 | 1016.7 |
| 20260504014054 | 67 | 0 | 0.0 | 0.0 | 0.00 | 0.00 | 0.00 | 63 | 1016.6 |
| 20260504013154 | 69 | 0 | 0.0 | 0.0 | 0.00 | 0.00 | 0.00 | 57 | 1016.6 |
| 20260504010454 | 71 | 290 | 0.0 | 0.9 | 0.00 | 0.00 | 0.00 | 52 | 1016.3 |
| 20260504004654 | 73 | 271 | 0.9 | 2.6 | 0.00 | 0.00 | 0.00 | 50 | 1016.4 |
| 20260504003754 | 74 | 270 | 0.0 | 3.5 | 0.00 | 0.00 | 0.00 | 49 | 1016.4 |
| 20260504002854 | 74 | 293 | 0.9 | 3.5 | 0.00 | 0.00 | 0.00 | 47 | 1016.6 |
| 20260504001954 | 74 | 283 | 0.9 | 3.5 | 0.00 | 0.00 | 0.00 | 46 | 1016.7 |
| 20260504001054 | 75 | 306 | 0.9 | 4.3 | 0.00 | 0.00 | 0.00 | 46 | 1016.9 |
| 20260504000154 | 76 | 316 | 1.7 | 6.1 | 0.00 | 0.00 | 0.00 | 44 | 1017.0 |
| 20260503235254 | 77 | 290 | 1.7 | 6.1 | 0.00 | 0.00 | 0.00 | 43 | 1017.0 |
| 20260503234354 | 78 | 306 | 0.9 | 5.2 | 0.00 | 0.00 | 0.00 | 42 | 1017.0 |
| 20260503233454 | 78 | 314 | 1.7 | 7.0 | 0.00 | 0.00 | 0.00 | 42 | 1017.0 |
| 20260503232554 | 78 | 301 | 1.7 | 6.1 | 0.00 | 0.00 | 0.00 | 41 | 1017.0 |
| 20260503231654 | 78 | 315 | 1.7 | 6.1 | 0.00 | 0.00 | 0.00 | 40 | 1017.0 |
| 20260503230753 | 79 | 335 | 1.7 | 5.2 | 0.00 | 0.00 | 0.00 | 39 | 1017.1 |
| 20260503224953 | 79 | 310 | 1.7 | 6.1 | 0.00 | 0.00 | 0.00 | 41 | 1017.1 |
| 20260503223153 | 79 | 332 | 1.7 | 7.8 | 0.00 | 0.00 | 0.00 | 39 | 1017.3 |
| 20260503222254 | 78 | 327 | 1.7 | 4.3 | 0.00 | 0.00 | 0.00 | 39 | 1017.5 |
| 20260503221354 | 79 | 329 | 2.6 | 7.0 | 0.00 | 0.00 | 0.00 | 39 | 1017.5 |
| 20260503220454 | 79 | 307 | 1.7 | 6.1 | 0.00 | 0.00 | 0.00 | 40 | 1017.7 |
| 20260503215554 | 80 | 307 | 1.7 | 5.2 | 0.00 | 0.00 | 0.00 | 39 | 1018.0 |
| 20260503214653 | 80 | 305 | 2.6 | 7.0 | 0.00 | 0.00 | 0.00 | 37 | 1018.1 |
| 20260503213753 | 80 | 295 | 1.7 | 7.8 | 0.00 | 0.00 | 0.00 | 38 | 1018.1 |
| 20260503212854 | 80 | 301 | 1.7 | 7.8 | 0.00 | 0.00 | 0.00 | 38 | 1018.2 |
| 20260503211953 | 80 | 300 | 1.7 | 6.1 | 0.00 | 0.00 | 0.00 | 37 | 1018.4 |
| 20260503210154 | 80 | 303 | 2.6 | 10.4 | 0.00 | 0.00 | 0.00 | 38 | 1018.8 |
| 20260503205254 | 80 | 312 | 1.7 | 6.1 | 0.00 | 0.00 | 0.00 | 41 | 1018.9 |
| 20260503204353 | 80 | 323 | 1.7 | 4.3 | 0.00 | 0.00 | 0.00 | 38 | 1019.2 |
| 20260503203453 | 80 | 326 | 1.7 | 7.0 | 0.00 | 0.00 | 0.00 | 40 | 1019.4 |
| 20260503202554 | 80 | 321 | 1.7 | 4.3 | 0.00 | 0.00 | 0.00 | 39 | 1019.6 |
| 20260503201654 | 79 | 337 | 1.7 | 7.0 | 0.00 | 0.00 | 0.00 | 38 | 1019.7 |
| 20260503200754 | 78 | 300 | 2.6 | 7.0 | 0.00 | 0.00 | 0.00 | 39 | 1019.7 |
| 20260503195854 | 79 | 299 | 2.6 | 5.2 | 0.00 | 0.00 | 0.00 | 38 | 1020.0 |
| 20260503194953 | 79 | 294 | 2.6 | 7.0 | 0.00 | 0.00 | 0.00 | 36 | 1020.1 |
| 20260503194054 | 80 | 319 | 2.6 | 6.1 | 0.00 | 0.00 | 0.00 | 40 | 1020.3 |
| 20260503193153 | 80 | 329 | 2.6 | 8.7 | 0.00 | 0.00 | 0.00 | 33 | 1020.3 |
| 20260503192253 | 79 | 320 | 1.7 | 7.8 | 0.00 | 0.00 | 0.00 | 38 | 1020.4 |
| 20260503191353 | 79 | 325 | 2.6 | 7.0 | 0.00 | 0.00 | 0.00 | 40 | 1020.7 |
| 20260503190454 | 79 | 336 | 2.6 | 7.0 | 0.00 | 0.00 | 0.00 | 41 | 1020.6 |
| 20260503185554 | 78 | 295 | 2.6 | 7.8 | 0.00 | 0.00 | 0.00 | 43 | 1020.9 |
| 20260503182853 | 78 | 317 | 2.6 | 7.8 | 0.00 | 0.00 | 0.00 | 41 | 1021.3 |
| 20260503180153 | 78 | 292 | 2.6 | 8.7 | 0.00 | 0.00 | 0.00 | 45 | 1021.8 |
| 20260503175253 | 78 | 313 | 2.6 | 7.0 | 0.00 | 0.00 | 0.00 | 45 | 1022.0 |
| 20260503174353 | 77 | 303 | 2.6 | 6.1 | 0.00 | 0.00 | 0.00 | 49 | 1022.1 |
| 20260503173453 | 78 | 296 | 1.7 | 7.8 | 0.00 | 0.00 | 0.00 | 45 | 1022.3 |
| 20260503171653 | 77 | 315 | 2.6 | 7.8 | 0.00 | 0.00 | 0.00 | 45 | 1022.5 |
| 20260503170753 | 76 | 287 | 1.7 | 7.0 | 0.00 | 0.00 | 0.00 | 45 | 1022.6 |